Retour au catalogue

STARLINK-31973

ActifCommunicationsVLEO
NORAD 59943·PAYLOAD·🇺🇸 United States

Lancé Jun 1, 2024 depuis Cape Canaveral Space Force Station

Loading…

Prochains Passages (prochaines 24 heures)

TLE

FraisSource: CelesTrak SupGP

Époque: Sep 14, 2026, 22:47 UTC

1 59943C 24106X   26257.94979167 -.00016684  00000+0 -60448-3 0  2575
2 59943  43.0025 343.8887 0001580 274.3785 145.9613 15.27577435    13

Suivez STARLINK-31973 en temps réel avec AllMySat

Download on the App Store